owner,sensor,date,latitude,longitude,vertical_datum,wind_speed,wind_to_direction,wind_speed_of_gust,qcFlag 
LOOP,urn:ioos:station:wmo:lopl1:1,2019-12-01T00:22:00Z,28.8850,-90.0250,10.0,5.7,-9999.0,7.2,'11111222,11111222,11111222' 
LOOP,urn:ioos:station:wmo:lopl1:1,2019-12-01T01:22:00Z,28.8850,-90.0250,10.0,5.7,-9999.0,8.8,'11111222,11111222,11111222' 
LOOP,urn:ioos:station:wmo:lopl1:1,2019-12-01T02:22:00Z,28.8850,-90.0250,10.0,7.7,-9999.0,8.2,'11111222,11111222,11111222' 
LOOP,urn:ioos:station:wmo:lopl1:1,2019-12-01T03:22:00Z,28.8850,-90.0250,10.0,8.2,-9999.0,8.2,'11111222,11111222,11111222' 
LOOP,urn:ioos:station:wmo:lopl1:1,2019-12-01T04:27:00Z,28.8850,-90.0250,10.0,8.8,-9999.0,9.3,'11111222,11111222,11111222' 
LOOP,urn:ioos:station:wmo:lopl1:1,2019-12-01T05:27:00Z,28.8850,-90.0250,10.0,8.2,-9999.0,8.8,'11111222,11111222,11111222' 
LOOP,urn:ioos:station:wmo:lopl1:1,2019-12-01T06:27:00Z,28.8850,-90.0250,10.0,8.8,-9999.0,9.3,'11111222,11111222,11111222' 
LOOP,urn:ioos:station:wmo:lopl1:1,2019-12-01T07:27:00Z,28.8850,-90.0250,10.0,9.3,-9999.0,9.8,'11111222,11111222,11111222' 
LOOP,urn:ioos:station:wmo:lopl1:1,2019-12-01T08:27:00Z,28.8850,-90.0250,10.0,9.3,-9999.0,9.8,'11111222,11111222,11111222' 
LOOP,urn:ioos:station:wmo:lopl1:1,2019-12-01T09:27:00Z,28.8850,-90.0250,10.0,10.3,-9999.0,10.8,'11111222,11111222,11111222' 
LOOP,urn:ioos:station:wmo:lopl1:1,2019-12-01T10:27:00Z,28.8850,-90.0250,10.0,10.3,-9999.0,10.8,'11111222,11111222,11111222' 
LOOP,urn:ioos:station:wmo:lopl1:1,2019-12-01T11:28:00Z,28.8850,-90.0250,10.0,5.7,-9999.0,10.8,'11111222,11111222,11111222' 
LOOP,urn:ioos:station:wmo:lopl1:1,2019-12-01T12:28:00Z,28.8850,-90.0250,10.0,4.6,280.0,6.2,'11111222,11111222,11111222' 
LOOP,urn:ioos:station:wmo:lopl1:1,2019-12-01T13:28:00Z,28.8850,-90.0250,10.0,8.8,10.0,10.8,'11111222,11111222,11111222' 
LOOP,urn:ioos:station:wmo:lopl1:1,2019-12-01T14:28:00Z,28.8850,-90.0250,10.0,5.1,20.0,6.7,'11111222,11111222,11111222' 
LOOP,urn:ioos:station:wmo:lopl1:1,2019-12-01T15:28:00Z,28.8850,-90.0250,10.0,3.1,340.0,5.1,'11111222,11111222,11111222' 
LOOP,urn:ioos:station:wmo:lopl1:1,2019-12-01T16:28:00Z,28.8850,-90.0250,10.0,5.7,340.0,7.7,'11111222,11111222,11111222' 
LOOP,urn:ioos:station:wmo:lopl1:1,2019-12-01T17:28:00Z,28.8850,-90.0250,10.0,5.7,340.0,8.2,'11111222,11111222,11111222' 
LOOP,urn:ioos:station:wmo:lopl1:1,2019-12-01T18:28:00Z,28.8850,-90.0250,10.0,4.6,300.0,7.2,'11111222,11111222,11111222' 
LOOP,urn:ioos:station:wmo:lopl1:1,2019-12-01T19:28:00Z,28.8850,-90.0250,10.0,4.6,300.0,6.7,'11111222,11111222,11111222' 
LOOP,urn:ioos:station:wmo:lopl1:1,2019-12-01T20:28:00Z,28.8850,-90.0250,10.0,6.2,300.0,8.2,'11111222,11111222,11111222' 
LOOP,urn:ioos:station:wmo:lopl1:1,2019-12-01T21:28:00Z,28.8850,-90.0250,10.0,6.2,290.0,8.2,'11111222,11111222,11111222' 
LOOP,urn:ioos:station:wmo:lopl1:1,2019-12-01T22:28:00Z,28.8850,-90.0250,10.0,7.7,300.0,10.3,'11111222,11111222,11111222' 
LOOP,urn:ioos:station:wmo:lopl1:1,2019-12-01T23:28:00Z,28.8850,-90.0250,10.0,7.7,300.0,10.8,'11111222,11111222,11111222' 
LOOP,urn:ioos:station:wmo:lopl1:1,2019-12-02T00:28:00Z,28.8850,-90.0250,10.0,7.7,310.0,10.8,'11111222,11111222,11111222' 
LOOP,urn:ioos:station:wmo:lopl1:1,2019-12-02T01:28:00Z,28.8850,-90.0250,10.0,7.2,300.0,10.3,'11111222,11111222,11111222' 
LOOP,urn:ioos:station:wmo:lopl1:1,2019-12-02T02:28:00Z,28.8850,-90.0250,10.0,8.2,310.0,13.9,'11111222,11111222,11111222' 
LOOP,urn:ioos:station:wmo:lopl1:1,2019-12-02T03:28:00Z,28.8850,-90.0250,10.0,9.8,320.0,14.9,'11111222,11111222,11111222' 
LOOP,urn:ioos:station:wmo:lopl1:1,2019-12-02T04:28:00Z,28.8850,-90.0250,10.0,12.9,320.0,17.5,'11111222,11111222,11111222' 
LOOP,urn:ioos:station:wmo:lopl1:1,2019-12-02T05:28:00Z,28.8850,-90.0250,10.0,12.9,320.0,17.5,'11111222,11111222,11111222' 
LOOP,urn:ioos:station:wmo:lopl1:1,2019-12-02T06:28:00Z,28.8850,-90.0250,10.0,11.3,350.0,14.4,'11111222,11111222,11111222' 
LOOP,urn:ioos:station:wmo:lopl1:1,2019-12-02T07:28:00Z,28.8850,-90.0250,10.0,11.8,340.0,17.0,'11111222,11111222,11111222' 
LOOP,urn:ioos:station:wmo:lopl1:1,2019-12-02T08:28:00Z,28.8850,-90.0250,10.0,14.4,340.0,19.0,'11111222,11111222,11111222' 
LOOP,urn:ioos:station:wmo:lopl1:1,2019-12-02T09:28:00Z,28.8850,-90.0250,10.0,12.4,340.0,16.5,'11111222,11111222,11111222' 
LOOP,urn:ioos:station:wmo:lopl1:1,2019-12-02T10:28:00Z,28.8850,-90.0250,10.0,12.4,340.0,17.0,'11111222,11111222,11111222' 
LOOP,urn:ioos:station:wmo:lopl1:1,2019-12-02T11:28:00Z,28.8850,-90.0250,10.0,11.8,340.0,16.0,'11111222,11111222,11111222' 
LOOP,urn:ioos:station:wmo:lopl1:1,2019-12-02T12:28:00Z,28.8850,-90.0250,10.0,13.4,360.0,19.0,'11111222,11144222,11111222' 
LOOP,urn:ioos:station:wmo:lopl1:1,2019-12-02T13:28:00Z,28.8850,-90.0250,10.0,10.8,340.0,16.0,'11111222,11111222,11111222' 
LOOP,urn:ioos:station:wmo:lopl1:1,2019-12-02T14:33:00Z,28.8850,-90.0250,10.0,10.3,350.0,16.5,'11111222,11111222,11111222' 
LOOP,urn:ioos:station:wmo:lopl1:1,2019-12-02T15:33:00Z,28.8850,-90.0250,10.0,6.2,340.0,11.3,'11111222,11111222,11111222' 
LOOP,urn:ioos:station:wmo:lopl1:1,2019-12-02T16:33:00Z,28.8850,-90.0250,10.0,5.1,20.0,9.3,'11111222,11111222,11111222' 
LOOP,urn:ioos:station:wmo:lopl1:1,2019-12-02T17:33:00Z,28.8850,-90.0250,10.0,5.1,340.0,9.8,'11111222,11111222,11111222' 
LOOP,urn:ioos:station:wmo:lopl1:1,2019-12-02T18:33:00Z,28.8850,-90.0250,10.0,4.1,20.0,7.2,'11111222,11111222,11111222' 
LOOP,urn:ioos:station:wmo:lopl1:1,2019-12-02T19:33:00Z,28.8850,-90.0250,10.0,3.6,340.0,8.2,'11111222,11111222,11111222' 
LOOP,urn:ioos:station:wmo:lopl1:1,2019-12-02T20:33:00Z,28.8850,-90.0250,10.0,3.1,20.0,7.7,'11111222,11111222,11111222' 
LOOP,urn:ioos:station:wmo:lopl1:1,2019-12-02T21:33:00Z,28.8850,-90.0250,10.0,3.6,10.0,8.8,'11111222,11111222,11111222' 
LOOP,urn:ioos:station:wmo:lopl1:1,2019-12-02T22:33:00Z,28.8850,-90.0250,10.0,4.6,350.0,8.2,'11111222,11111222,11111222' 
LOOP,urn:ioos:station:wmo:lopl1:1,2019-12-02T23:33:00Z,28.8850,-90.0250,10.0,5.1,350.0,7.7,'11111222,11111222,11111222' 
LOOP,urn:ioos:station:wmo:lopl1:1,2019-12-03T00:33:00Z,28.8850,-90.0250,10.0,3.6,350.0,6.2,'11111222,11111222,11111222' 
LOOP,urn:ioos:station:wmo:lopl1:1,2019-12-03T01:33:00Z,28.8850,-90.0250,10.0,3.6,30.0,6.7,'11111222,11111222,11111222' 
LOOP,urn:ioos:station:wmo:lopl1:1,2019-12-03T02:33:00Z,28.8850,-90.0250,10.0,3.6,360.0,6.2,'11111222,11144222,11111222' 
LOOP,urn:ioos:station:wmo:lopl1:1,2019-12-03T03:33:00Z,28.8850,-90.0250,10.0,4.6,10.0,6.7,'11111222,11111222,11111222' 
LOOP,urn:ioos:station:wmo:lopl1:1,2019-12-03T04:33:00Z,28.8850,-90.0250,10.0,4.6,10.0,7.7,'11111222,11111222,11111222' 
LOOP,urn:ioos:station:wmo:lopl1:1,2019-12-03T05:33:00Z,28.8850,-90.0250,10.0,4.1,20.0,7.2,'11111222,11111222,11111222' 
LOOP,urn:ioos:station:wmo:lopl1:1,2019-12-03T06:33:00Z,28.8850,-90.0250,10.0,4.6,20.0,7.7,'11111222,11111222,11111222' 
LOOP,urn:ioos:station:wmo:lopl1:1,2019-12-03T07:33:00Z,28.8850,-90.0250,10.0,5.1,20.0,7.7,'11111222,11111222,11111222' 
LOOP,urn:ioos:station:wmo:lopl1:1,2019-12-03T08:33:00Z,28.8850,-90.0250,10.0,6.2,10.0,8.2,'11111222,11111222,11111222' 
LOOP,urn:ioos:station:wmo:lopl1:1,2019-12-03T09:33:00Z,28.8850,-90.0250,10.0,7.2,20.0,9.8,'11111222,11111222,11111222' 
LOOP,urn:ioos:station:wmo:lopl1:1,2019-12-03T10:33:00Z,28.8850,-90.0250,10.0,6.2,20.0,7.7,'11111222,11111222,11111222' 
LOOP,urn:ioos:station:wmo:lopl1:1,2019-12-03T11:33:00Z,28.8850,-90.0250,10.0,5.1,20.0,7.2,'11111222,11111222,11111222' 
LOOP,urn:ioos:station:wmo:lopl1:1,2019-12-03T12:33:00Z,28.8850,-90.0250,10.0,5.7,20.0,7.2,'11111222,11111222,11111222' 
LOOP,urn:ioos:station:wmo:lopl1:1,2019-12-03T13:33:00Z,28.8850,-90.0250,10.0,4.6,40.0,6.2,'11111222,11111222,11111222' 
LOOP,urn:ioos:station:wmo:lopl1:1,2019-12-03T14:38:00Z,28.8850,-90.0250,10.0,4.6,20.0,6.2,'11111222,11111222,11111222' 
LOOP,urn:ioos:station:wmo:lopl1:1,2019-12-03T15:38:00Z,28.8850,-90.0250,10.0,2.1,100.0,3.1,'11111222,11111222,11111222' 
LOOP,urn:ioos:station:wmo:lopl1:1,2019-12-03T20:38:00Z,28.8850,-90.0250,10.0,1.5,-9999.0,2.6,'11111222,11111222,11111222' 
LOOP,urn:ioos:station:wmo:lopl1:1,2019-12-03T21:38:00Z,28.8850,-90.0250,10.0,1.0,-9999.0,3.1,'11111222,11111222,11111222' 
LOOP,urn:ioos:station:wmo:lopl1:1,2019-12-03T22:38:00Z,28.8850,-90.0250,10.0,2.6,280.0,3.6,'11111222,11111222,11111222' 
LOOP,urn:ioos:station:wmo:lopl1:1,2019-12-03T23:38:00Z,28.8850,-90.0250,10.0,2.6,310.0,3.6,'11111222,11111222,11111222' 
LOOP,urn:ioos:station:wmo:lopl1:1,2019-12-04T00:38:00Z,28.8850,-90.0250,10.0,2.6,310.0,3.6,'11111222,11111222,11111222' 
LOOP,urn:ioos:station:wmo:lopl1:1,2019-12-04T01:38:00Z,28.8850,-90.0250,10.0,2.6,290.0,4.1,'11111222,11111222,11111222' 
LOOP,urn:ioos:station:wmo:lopl1:1,2019-12-04T02:38:00Z,28.8850,-90.0250,10.0,2.6,310.0,4.6,'11111222,11111222,11111222' 
LOOP,urn:ioos:station:wmo:lopl1:1,2019-12-04T03:38:00Z,28.8850,-90.0250,10.0,4.1,290.0,5.1,'11111222,11111222,11111222' 
LOOP,urn:ioos:station:wmo:lopl1:1,2019-12-04T04:38:00Z,28.8850,-90.0250,10.0,4.6,310.0,6.7,'11111222,11111222,11111222' 
LOOP,urn:ioos:station:wmo:lopl1:1,2019-12-04T05:38:00Z,28.8850,-90.0250,10.0,4.6,310.0,6.7,'11111222,11111222,11111222' 
LOOP,urn:ioos:station:wmo:lopl1:1,2019-12-04T06:38:00Z,28.8850,-90.0250,10.0,3.1,300.0,4.6,'11111222,11111222,11111222' 
LOOP,urn:ioos:station:wmo:lopl1:1,2019-12-04T07:38:00Z,28.8850,-90.0250,10.0,3.6,300.0,5.7,'11111222,11111222,11111222' 
LOOP,urn:ioos:station:wmo:lopl1:1,2019-12-04T08:38:00Z,28.8850,-90.0250,10.0,3.6,290.0,5.7,'11111222,11111222,11111222' 
LOOP,urn:ioos:station:wmo:lopl1:1,2019-12-04T09:38:00Z,28.8850,-90.0250,10.0,4.1,290.0,5.7,'11111222,11111222,11111222' 
LOOP,urn:ioos:station:wmo:lopl1:1,2019-12-04T10:38:00Z,28.8850,-90.0250,10.0,2.6,310.0,3.6,'11111222,11111222,11111222' 
LOOP,urn:ioos:station:wmo:lopl1:1,2019-12-04T11:38:00Z,28.8850,-90.0250,10.0,3.6,310.0,5.1,'11111222,11111222,11111222' 
LOOP,urn:ioos:station:wmo:lopl1:1,2019-12-04T12:38:00Z,28.8850,-90.0250,10.0,3.6,300.0,5.1,'11111222,11111222,11111222' 
LOOP,urn:ioos:station:wmo:lopl1:1,2019-12-04T13:38:00Z,28.8850,-90.0250,10.0,3.6,330.0,5.7,'11111222,11111222,11111222' 
LOOP,urn:ioos:station:wmo:lopl1:1,2019-12-04T14:38:00Z,28.8850,-90.0250,10.0,4.6,330.0,7.2,'11111222,11111222,11111222' 
LOOP,urn:ioos:station:wmo:lopl1:1,2019-12-04T15:38:00Z,28.8850,-90.0250,10.0,4.6,330.0,6.2,'11111222,11111222,11111222' 
LOOP,urn:ioos:station:wmo:lopl1:1,2019-12-04T16:43:00Z,28.8850,-90.0250,10.0,4.1,340.0,5.7,'11111222,11111222,11111222' 
LOOP,urn:ioos:station:wmo:lopl1:1,2019-12-04T17:43:00Z,28.8850,-90.0250,10.0,3.1,340.0,5.1,'11111222,11111222,11111222' 
LOOP,urn:ioos:station:wmo:lopl1:1,2019-12-04T19:58:00Z,28.8850,-90.0250,10.0,2.6,20.0,3.6,'11111222,11111222,11111222' 
 
DISCLAIMER: The Gulf of Mexico Coastal and Ocean Observing (GCOOS) Data Portal aggregates data from the regional data providers for the convenience of all data users. Data published on this website should not be used for navigation or certain other uses as we cannot guarantee data accuracy or availability. The data and delivery services are provided 'as is' without warranty of any kind. Data Source: Gulf of Mexico Coastal Ocean Observing System Data Portal (http://data.gcoos.org/) 
